Tracking 35274 objects as of 11-Sep-2026
HD Live streaming from Space Station
objects crossing your sky now

FALCON 9 DEB


FALCON 9 DEB is no longer on orbit


NORAD ID: 52595
Int'l Code: 2022-051BG
Launch date: May 13, 2022
Source: United States (US)
Launch site: AIR FORCE WESTERN TEST RANGE (AFWTR)
Decay date: 2022-06-27

Note: This is SATELLITE DEBRIS
Your satellite tracking list
Your tracking list is empty




NASA's NSSDC Master Catalog

Two Line Element Set (TLE):
1 52595U 22051BG  22178.15536706  .11258091  12528-4  21808-3 0  9990
2 52595  53.2025  65.6702 0007320 266.2402  93.7812 16.46794077  7553
Source of the keplerian elements: AFSPC